Location: Unspecified
(0.0000°N, 0.0000°E)
Time: 22:30:02
(UTC+00:00)

ISS - Pass Details

Date: 07 April 2024
Orbit: 412 x 425 km, 51.6° (Epoch: 06 October)

Event Time Altitude Azimuth Distance (km) Brightness Sun altitude
Rises 18:54:32 0° 312° (NW) 2,392 1.1 -13.0°
Reaches altitude 10° 18:56:41 10° 305° (NW) 1,542 0.1 -13.6°
Maximum altitude 18:59:57 39° 234° (SW) 684 -2.3 -14.4°
Drops below altitude 10° 19:03:20 10° 164° (SSE) 1,594 -1.1 -15.2°
Enters shadow 19:03:44 - 162° (SSE) 1,747 -0.9 -15.3°
